This is the latest recevied weather packets stored in our database for station/object W4DHW-4. If no packets are shown the sender has not sent any weather packets the latest 10 day(s).
| Time | Temp. | Humidity | Pressure | Rain* | Wind** | Luminosity | Snow |
|---|---|---|---|---|---|---|---|
| 1777750868 | 15.56° C | 34% | 1011.7 hPa | 0 mm | - | 848 W/m² | - |
| 1777750565 | 15.56° C | 33% | 1011.7 hPa | 0 mm | - | 282 W/m² | - |
| 1777750262 | 16.11° C | 33% | 1011.9 hPa | 0 mm | - | 352 W/m² | - |
| 1777749958 | 16.67° C | 32% | 1011.9 hPa | 0 mm | - | 395 W/m² | - |
| 1777749656 | 16.67° C | 37% | 1011.7 hPa | 0 mm | - | 675 W/m² | - |
| 1777749352 | 16.67° C | 35% | 1011.9 hPa | 0 mm | - | 787 W/m² | - |
| 1777749050 | 16.11° C | 36% | 1012 hPa | 0 mm | - | 769 W/m² | - |
| 1777748747 | 16.11° C | 36% | 1012.5 hPa | 0 mm | - | 711 W/m² | - |
| 1777748444 | 15.56° C | 37% | 1012.3 hPa | 0 mm | - | 681 W/m² | - |
| 1777748138 | 15.56° C | 37% | 1012.1 hPa | 0 mm | - | 849 W/m² | - |
| 1777747836 | 15.56° C | 36% | 1012.4 hPa | 0 mm | - | 692 W/m² | - |
| 1777747532 | 15.56° C | 36% | 1012.4 hPa | 0 mm | - | 873 W/m² | - |
| 1777747228 | 15.56° C | 36% | 1012.6 hPa | 0 mm | - | 307 W/m² | - |
| 1777746924 | 15° C | 38% | 1012.6 hPa | 0 mm | - | 798 W/m² | - |
| 1777746621 | 15.56° C | 38% | 1012.8 hPa | 0 mm | - | 761 W/m² | - |
| 1777746315 | 16.11° C | 36% | 1012.9 hPa | 0 mm | - | 771 W/m² | - |
| 1777746012 | 16.11° C | 37% | 1012.8 hPa | 0 mm | - | 762 W/m² | - |
| 1777745710 | 15.56° C | 37% | 1012.8 hPa | 0 mm | - | 813 W/m² | - |
| 1777745409 | 15° C | 38% | 1013.1 hPa | 0 mm | - | 862 W/m² | - |
| 1777745105 | 14.44° C | 38% | 1013.1 hPa | 0 mm | - | 498 W/m² | - |
| 1777744802 | 15° C | 38% | 1013.2 hPa | 0 mm | - | 407 W/m² | - |
| 1777744501 | 15° C | 38% | 1013.1 hPa | 0 mm | - | 577 W/m² | - |
| 1777744198 | 15° C | 38% | 1013.2 hPa | 0 mm | - | 822 W/m² | - |
| 1777743895 | 14.44° C | 38% | 1013.4 hPa | 0 mm | - | 694 W/m² | - |
| 1777743592 | 14.44° C | 40% | 1013.5 hPa | 0 mm | - | 494 W/m² | - |
* Rain latest hour (hover to see other rain measurements)
** Current wind speed in m/s (hover to see current wind gust speed)